Temperature
23 22 22 22 22 22 23 24 24 24 23 23 22 22 21 20 20 19 19 18 18 17 17 17 17 17 17 17 17 17 16 16 16 16 15 15 15 15 14 14 14 14 13 13
22 22 22 22 22 22 22 22 23 23 22 22 21 21 20 20 19 19 18 18 18 18 17 17 17 17 17 17 16 16 16 16 16 16 16 15 15 15 14 14 14 14 13 13
23 22 22 22 22 22 22 22 22 22 22 21 21 20 20 19 19 18 18 17 17 17 17 17 17 17 17 16 16 16 16 16 16 16 16 15 15 15 15 14 14 14 14 13
22 22 21 22 21 21 21 20 21 21 21 20 20 19 19 18 18 18 17 17 17 17 17 17 17 17 16 16 16 16 16 15 15 15 15 15 15 15 15 14 14 14 14 13
22 22 22 21 21 21 21 20 20 20 20 19 19 19 19 17 17 17 16 16 16 16 16 16 16 16 16 16 16 15 15 15 15 15 15 15 15 15 14 14 14 14 14 14
21 21 21 21 21 20 21 20 20 20 20 19 20 21 20 17 16 16 16 16 16 16 16 16 16 16 16 15 15 15 15 15 15 15 15 15 15 15 14 14 14 14 13 13
21 21 22 20 19 19 20 21 19 19 19 19 19 19 18 16 16 16 16 16 16 16 16 16 15 15 15 15 15 15 15 15 15 15 14 14 14 14 14 14 14 14 13 13
20 21 21 19 19 20 20 19 18 18 18 17 17 16 16 16 16 16 15 16 16 15 15 15 15 15 15 15 15 15 15 14 14 14 14 14 14 14 14 14 14 13 13 13
20 20 18 17 18 17 17 17 17 17 16 16 16 15 15 15 15 15 15 15 15 15 15 15 15 15 14 14 14 14 14 14 14 14 14 13 13 14 13 13 13 13 13 13
18 18 17 16 16 16 16 16 15 15 15 15 15 15 15 15 15 15 15 15 14 14 14 14 14 14 14 14 14 13 13 13 13 13 13 13 13 13 13 13 13 13 12 12
18 18 16 16 15 15 15 15 15 14 14 14 14 14 14 14 14 14 14 14 14 14 14 14 14 13 13 13 13 13 13 13 13 13 13 13 12 12 13 13 13 13 12 12
18 17 17 16 15 14 14 14 14 14 14 14 14 13 13 14 13 13 13 13 13 13 13 13 13 13 13 13 13 12 12 12 12 12 12 12 12 12 12 12 13 13 12 12
16 15 15 14 14 13 13 13 13 13 13 13 13 13 13 13 13 13 13 13 13 12 12 12 13 12 12 12 12 12 12 12 12 12 12 12 12 11 12 12 12 12 12 12
13 13 14 13 13 13 13 13 13 13 13 13 12 12 12 12 12 12 12 12 12 12 12 12 12 12 12 12 12 12 11 11 11 11 11 11 11 11 11 11 11 11 11 11
12 13 13 12 12 12 12 12 12 12 12 12 12 12 12 12 12 12 12 12 11 11 11 11 11 11 11 11 11 11 11 11 11 11 11 11 11 11 11 10 11 11 11 11
12 12 11 11 11 11 11 11 11 11 11 11 11 11 11 11 11 11 11 11 11 11 11 11 11 11 11 11 11 11 11 11 10 10 10 10 10 10 10 10 10 10 10 10
11 11 11 11 11 11 11 11 11 10 10 10 10 10 10 10 10 10 11 10 10 10 10 11 10 10 10 10 10 10 10 10 10 10 10 10 10 10 10 10 10 10 10 10
10 11 11 11 10 10 10 10 10 10 10 10 10 10 10 10 10 10 10 10 10 10 10 10 10 10 10 10 10 9 9 9 9 9 9 9 9 9 9 9 9 9 9 9
10 10 10 10 10 10 9 9 9 9 9 9 9 9 9 9 9 9 9 9 9 9 9 9 9 9 9 9 9 9 9 9 9 9 9 9 9 9 9 9 9 9 9 9
9 9 9 9 9 9 9 9 9 9 9 9 9 9 9 9 9 9 9 8 9 9 9 9 8 9 9 9 9 8 8 8 8 9 9 9 8 8 8 9 9 9 9 9
9 9 9 9 9 8 8 8 8 8 8 8 8 8 8 8 8 8 8 8 8 8 8 8 8 8 8 8 8 8 8 8 8 8 8 8 8 8 8 8 8 8 8 8
8 8 8 8 8 8 8 8 8 8 8 8 8 8 8 8 8 8 8 8 8 8 8 7 8 8 8 8 7 8 8 7 8 8 8 8 8 8 8 8 8 8 8 8
8 8 8 8 8 8 7 7 7 8 7 7 7 7 7 7 7 7 7 7 7 7 7 7 7 7 7 7 7 7 7 7 7 7 8 8 8 8 8 7 7 8 8 8
8 7 7 7 7 7 7 7 7 7 7 7 7 7 7 7 7 7 7 7 7 7 7 7 7 7 7 7 7 7 7 7 7 7 7 7 7 7 7 7 7 7 7 7
7 7 7 7 7 7 7 7 7 7 7 7 7 7 7 7 6 6 6 6 6 6 6 6 7 7 6 6 6 6 7 7 7 7 7 7 7 7 7 7 7 7 7 7
6 6 6 6 6 6 6 6 6 6 6 6 6 6 6 6 6 6 6 6 6 6 6 6 6 6 6 6 6 6 6 6 6 6 6 6 6 6 6 6 6 6 6 7
6 6 6 6 6 6 6 6 6 6 6 6 6 6 6 6 6 6 5 5 5 5 5 5 5 5 5 6 6 6 6 6 6 6 6 6 6 6 6 6 6 6 6 6
Wind_Speed
0 0 1 2 3 4 5 4 3 2 1 2 4 4 4 4 4 4 4 4 3 2 2 1 1 1 1 2 3 3 3 4 4 4 4 4 4 4 4 4 4 4 4 3
3 3 2 3 4 5 5 4 4 3 1 2 3 4 4 4 4 4 4 4 3 2 2 1 0 0 1 2 3 3 3 3 3 4 3 4 5 5 4 5 5 4 5 4
5 3 4 5 3 4 3 2 4 3 1 2 3 4 4 4 4 4 4 4 3 3 1 1 1 1 2 2 3 3 4 3 3 4 3 4 4 5 5 5 5 5 5 5
4 5 6 2 3 3 4 3 1 1 2 2 2 3 4 5 5 5 5 4 4 3 3 2 2 1 1 2 2 3 3 4 3 4 4 4 5 5 5 5 5 5 5 5
5 5 4 3 3 3 4 3 2 2 2 2 2 3 4 5 5 5 5 4 4 4 3 2 2 2 2 2 2 3 3 4 4 4 4 5 5 6 6 5 5 6 5 6
6 6 5 3 3 1 4 4 3 2 2 1 1 2 1 4 4 4 4 4 4 4 3 3 3 2 2 2 2 3 4 4 4 4 5 6 6 6 6 6 6 6 6 6
8 7 4 3 2 3 6 2 3 1 1 0 1 3 3 3 3 4 4 4 4 3 3 3 3 3 3 3 3 4 4 4 4 4 5 6 5 5 6 6 6 6 6 6
7 7 4 4 4 3 2 4 2 1 1 1 1 2 3 3 3 3 4 4 4 4 3 3 3 3 4 4 4 4 4 4 5 5 5 5 5 5 5 6 6 7 6 6
3 0 5 4 4 3 2 2 2 2 2 1 2 2 3 4 4 4 4 4 4 4 4 4 4 4 5 5 5 5 5 5 5 5 5 5 5 5 5 5 6 6 6 6
3 3 3 3 2 1 2 2 2 2 2 2 2 3 4 4 4 4 4 4 4 5 5 5 5 5 5 6 6 6 6 6 5 6 5 5 4 5 5 5 5 6 6 6
4 3 3 3 1 1 2 2 2 2 2 3 3 4 5 5 5 5 5 4 4 5 6 6 6 6 6 5 6 7 7 6 6 5 6 5 5 5 6 6 6 6 6 6
5 4 4 3 2 2 2 3 3 3 3 4 4 5 6 6 5 5 5 5 5 6 6 7 7 7 6 6 6 7 7 6 5 5 5 5 5 5 4 6 6 7 8 8
5 3 3 3 3 3 3 4 4 4 4 5 5 6 6 6 5 6 6 6 6 7 7 7 7 7 7 6 6 7 7 7 6 6 5 6 6 6 5 4 5 8 9 9
6 5 6 5 4 4 4 4 4 5 5 5 5 5 6 6 6 6 7 7 7 7 8 8 8 8 7 7 7 8 8 7 7 6 6 6 6 6 6 6 5 5 6 8
7 7 6 5 4 4 4 4 4 4 5 5 5 5 6 7 7 7 7 7 7 8 8 8 9 9 7 7 8 9 8 7 6 7 7 7 7 6 6 7 7 6 5 5
5 5 5 6 6 5 5 5 5 5 5 6 6 6 7 7 8 8 7 7 8 9 9 9 10 9 8 8 8 8 8 8 8 7 7 7 7 7 7 7 7 7 7 6
7 6 6 6 6 6 6 6 6 6 6 6 7 7 8 8 8 8 8 8 9 10 10 10 10 9 9 8 9 8 8 7 8 8 8 8 7 8 8 8 7 7 7 6
7 7 7 6 6 6 6 6 6 7 7 7 8 8 8 9 9 10 10 10 10 11 11 11 10 9 9 9 8 8 8 8 8 8 8 8 8 8 8 8 9 8 6 6
5 5 5 6 6 6 6 6 7 7 7 7 8 9 9 10 10 10 10 11 11 12 11 11 10 10 10 9 8 8 9 9 9 9 9 8 9 9 9 9 9 8 7 7
4 4 4 5 5 6 6 6 7 7 7 8 8 9 10 11 11 11 11 11 10 10 11 11 11 11 11 10 9 8 9 10 10 9 9 9 9 10 9 9 9 9 8 8
3 4 4 5 6 6 7 7 7 8 8 8 9 10 11 11 11 11 11 11 12 11 11 11 11 10 10 9 10 9 10 10 10 10 9 9 10 10 10 10 9 9 9 9
4 4 5 5 6 6 7 7 7 8 9 9 10 11 11 12 12 12 12 11 12 11 11 10 10 10 11 11 10 10 11 11 11 10 10 10 10 10 10 10 10 9 9 9
5 5 6 6 7 7 7 7 8 8 9 10 10 11 12 12 11 11 12 11 11 12 11 11 12 14 15 12 11 11 11 12 11 11 11 10 10 10 10 11 10 9 9 9
6 6 7 7 7 8 9 9 8 8 9 10 11 11 12 11 11 11 11 12 12 14 12 13 15 16 16 12 11 11 11 11 11 11 11 11 10 10 10 10 9 9 9 10
7 7 7 8 8 8 9 9 9 9 10 9 11 11 11 10 11 11 12 13 13 14 13 14 16 17 14 12 12 12 11 11 11 11 11 10 10 10 10 9 9 9 9 9
8 8 8 9 8 8 8 8 8 8 8 9 10 10 10 9 11 11 11 12 15 14 13 12 12 13 12 12 12 12 12 12 12 11 11 11 11 11 10 9 11 9 8 8
9 8 8 8 8 8 8 8 9 9 9 10 11 10 10 10 10 11 12 12 12 12 12 11 11 11 11 11 11 11 11 11 10 10 10 10 10 10 9 10 8 8 7 7
Wind_Direction
198 89 222 235 235 230 242 256 243 185 165 50 38 42 54 60 64 66 63 57 58 65 75 106 136 202 225 225 214 208 211 222 234 241 238 243 245 245 245 241 240 242 249 255
205 190 216 248 247 234 239 245 239 219 198 57 64 70 70 64 62 59 49 40 36 43 50 57 122 218 236 236 231 224 223 229 238 249 243 242 243 244 242 235 237 239 243 250
218 195 235 245 239 212 193 206 221 213 146 84 83 67 56 55 59 50 38 27 17 9 359 338 327 258 249 244 233 235 236 232 234 241 240 242 239 236 234 235 235 239 241 243
232 218 235 110 95 145 143 115 103 89 92 94 89 81 63 55 46 38 27 16 7 354 350 339 337 305 275 256 243 244 251 249 245 247 245 244 241 240 239 241 237 234 239 240
228 229 226 164 153 178 179 139 99 104 91 87 110 143 89 48 27 20 13 7 360 347 345 345 345 317 282 266 261 258 261 264 257 248 245 243 240 241 245 243 239 235 232 233
221 230 230 156 128 193 204 172 123 114 94 76 218 226 57 20 6 6 4 0 357 351 353 356 348 322 285 280 282 276 270 269 264 253 245 244 245 245 245 242 241 241 235 233
226 234 229 103 129 188 209 146 108 113 98 87 305 347 2 353 351 351 353 353 350 350 354 347 335 316 298 295 295 292 281 273 266 256 249 249 249 243 238 239 241 241 236 234
217 228 209 105 152 180 68 72 93 66 32 18 360 358 346 339 335 336 342 348 345 340 343 338 328 311 303 302 304 300 285 274 266 260 256 249 243 242 238 235 235 235 233 232
224 178 78 104 110 76 63 70 50 18 359 338 322 326 329 326 323 325 330 335 336 331 329 330 323 309 304 309 307 296 281 273 268 264 257 252 244 239 237 234 236 234 232 232
209 173 134 127 125 78 31 20 4 350 332 310 305 309 312 315 318 322 322 321 321 319 319 321 319 309 306 310 303 292 283 276 269 263 260 254 249 244 242 239 238 235 233 233
223 195 189 191 204 320 332 328 328 335 322 302 301 302 304 303 306 310 314 313 308 306 308 313 315 312 311 308 301 292 285 279 273 267 263 257 250 250 248 249 248 241 238 236
234 215 234 245 261 274 283 292 295 298 304 302 297 297 298 298 301 302 305 307 304 304 307 312 314 312 311 305 296 292 288 282 275 269 263 258 256 260 265 259 248 244 250 248
258 271 268 278 277 266 269 280 283 283 287 292 297 296 293 294 296 297 297 299 300 302 304 308 310 310 310 303 294 288 285 281 274 268 263 258 255 255 263 273 246 235 234 234
247 248 254 257 267 272 272 274 273 277 281 285 292 294 291 290 292 291 292 294 296 297 299 302 303 304 307 301 293 287 285 279 273 267 262 260 257 255 253 255 258 254 236 221
242 243 250 259 263 266 264 267 272 277 285 290 294 290 288 287 287 289 292 293 291 291 293 296 296 299 303 298 292 288 284 279 275 272 265 261 259 256 255 255 253 248 241 224
230 230 234 240 250 255 258 264 269 275 283 285 288 287 286 286 287 287 289 289 288 289 291 291 290 294 295 290 288 285 280 273 273 272 264 259 257 256 257 255 251 244 236 227
228 231 232 239 247 252 256 263 267 271 277 280 284 288 287 285 286 287 289 289 287 287 288 287 289 292 289 285 283 283 283 277 264 267 262 259 258 256 257 256 251 246 241 224
233 239 244 249 254 258 262 264 265 272 277 282 284 284 282 281 283 287 290 292 291 289 288 288 291 292 287 283 283 284 281 279 273 268 264 259 259 259 257 257 252 248 246 229
223 229 239 246 253 258 261 265 269 273 277 279 278 279 279 279 282 285 289 290 289 289 291 293 292 286 285 282 282 277 278 277 274 270 266 261 258 259 256 256 253 246 242 234
220 235 246 254 258 261 266 269 272 274 277 278 279 280 281 282 284 286 287 284 283 287 292 295 291 286 284 282 278 276 276 275 274 271 267 264 260 259 257 255 255 248 242 237
237 251 258 261 265 266 268 271 273 275 277 277 277 279 281 284 286 285 284 285 287 290 292 290 284 283 282 285 276 274 273 273 272 269 266 263 260 259 257 255 254 251 244 240
255 264 269 270 270 272 274 276 276 276 277 278 279 280 282 283 284 284 280 281 287 287 288 286 284 285 287 286 276 273 271 271 270 269 267 264 261 258 255 254 252 251 248 242
263 269 271 272 273 277 280 279 277 277 277 279 281 282 282 283 283 282 284 286 288 289 289 284 286 288 286 281 275 271 269 268 268 268 267 265 261 258 255 253 252 250 249 243
266 268 270 273 274 274 275 278 280 279 279 281 280 280 281 281 280 278 281 285 285 285 284 283 281 282 281 277 275 271 268 268 268 268 267 265 262 259 255 252 251 249 247 242
269 269 268 268 268 269 274 278 280 280 281 282 283 284 282 279 280 285 286 286 287 286 285 285 283 282 279 276 274 272 269 267 267 268 266 264 261 258 256 252 249 248 248 243
268 267 266 263 264 268 272 273 275 279 283 285 286 287 287 284 283 283 283 284 285 286 285 285 284 281 278 278 275 272 270 269 266 264 264 263 259 256 254 250 248 246 245 243
266 266 267 266 264 263 266 269 272 277 279 282 286 289 290 289 287 287 287 286 288 287 286 284 284 282 280 277 274 273 271 269 267 265 264 262 259 255 251 248 245 243 241 238
Height
1492 1493 1494 1495 1495 1495 1494 1491 1493 1494 1496 1497 1498 1500 1501 1502 1502 1503 1503 1503 1503 1503 1504 1504 1504 1505 1505 1505 1506 1506 1506 1506 1507 1507 1507 1506 1506 1506 1506 1506 1506 1505 1505 1504
1494 1494 1494 1495 1494 1494 1495 1494 1493 1495 1497 1498 1501 1501 1502 1502 1502 1503 1503 1503 1503 1503 1503 1503 1503 1503 1503 1504 1504 1504 1505 1505 1504 1504 1504 1504 1504 1504 1504 1503 1503 1503 1503 1502
1493 1494 1495 1496 1492 1493 1495 1495 1495 1496 1498 1500 1501 1502 1503 1503 1503 1503 1503 1503 1503 1503 1503 1502 1502 1502 1502 1502 1502 1502 1503 1502 1502 1502 1502 1502 1501 1501 1501 1501 1501 1500 1500 1500
1493 1496 1504 1495 1492 1493 1496 1497 1497 1498 1499 1501 1502 1504 1504 1504 1504 1504 1503 1503 1502 1502 1502 1501 1501 1501 1501 1500 1500 1500 1500 1500 1499 1499 1499 1499 1499 1498 1498 1498 1498 1497 1497 1497
1493 1495 1494 1494 1493 1494 1495 1498 1499 1499 1500 1502 1502 1502 1503 1504 1504 1504 1503 1502 1502 1501 1501 1500 1499 1499 1498 1498 1498 1497 1497 1497 1496 1495 1495 1495 1495 1495 1495 1495 1494 1494 1494 1493
1493 1497 1497 1491 1492 1494 1495 1498 1499 1499 1500 1501 1500 1498 1502 1504 1503 1503 1502 1501 1500 1499 1499 1498 1497 1497 1496 1496 1495 1494 1494 1493 1493 1492 1492 1491 1491 1491 1491 1491 1491 1491 1490 1490
1491 1491 1486 1490 1493 1495 1497 1496 1499 1499 1500 1501 1501 1501 1504 1503 1502 1502 1501 1500 1499 1498 1497 1496 1495 1495 1494 1493 1492 1491 1491 1490 1489 1489 1488 1488 1488 1487 1487 1487 1487 1487 1487 1486
1489 1491 1491 1492 1492 1493 1494 1497 1498 1499 1500 1501 1502 1502 1502 1502 1501 1500 1499 1498 1497 1496 1495 1494 1493 1492 1492 1490 1489 1488 1487 1486 1486 1485 1485 1484 1484 1483 1483 1483 1483 1483 1483 1483
1485 1489 1492 1493 1494 1496 1497 1497 1498 1499 1500 1500 1501 1500 1500 1500 1499 1498 1497 1496 1495 1494 1493 1492 1491 1490 1489 1487 1486 1485 1483 1482 1482 1481 1481 1480 1480 1479 1479 1479 1479 1479 1479 1479
1488 1490 1493 1494 1495 1496 1497 1497 1498 1498 1499 1499 1499 1499 1498 1498 1497 1496 1495 1494 1493 1492 1491 1489 1488 1486 1485 1484 1482 1481 1480 1479 1478 1477 1476 1476 1475 1475 1475 1474 1474 1475 1475 1475
1486 1490 1492 1493 1494 1495 1495 1496 1496 1496 1497 1497 1497 1496 1496 1495 1494 1493 1492 1491 1490 1489 1487 1486 1485 1483 1482 1480 1479 1477 1476 1475 1474 1472 1471 1471 1470 1470 1470 1470 1470 1470 1470 1470
1484 1487 1489 1491 1493 1493 1494 1494 1494 1494 1494 1494 1494 1493 1493 1492 1491 1490 1489 1488 1487 1486 1484 1483 1481 1480 1478 1476 1475 1473 1472 1470 1469 1468 1467 1466 1465 1465 1464 1465 1464 1464 1465 1465
1486 1488 1489 1490 1491 1491 1491 1492 1492 1492 1491 1491 1491 1490 1490 1489 1488 1487 1486 1485 1483 1482 1481 1479 1478 1476 1474 1473 1471 1469 1468 1466 1465 1463 1463 1461 1461 1460 1459 1458 1458 1458 1459 1459
1485 1486 1487 1488 1488 1489 1489 1489 1489 1489 1489 1488 1488 1487 1486 1485 1484 1483 1482 1481 1480 1478 1477 1475 1474 1472 1470 1469 1467 1465 1463 1461 1460 1459 1458 1457 1456 1455 1454 1453 1453 1452 1453 1453
1482 1483 1484 1484 1485 1485 1486 1486 1486 1485 1485 1485 1484 1483 1482 1481 1480 1479 1478 1477 1475 1474 1472 1471 1469 1468 1466 1464 1462 1460 1458 1457 1455 1454 1453 1452 1451 1450 1449 1448 1448 1447 1447 1448
1478 1479 1480 1481 1482 1482 1483 1482 1482 1482 1481 1481 1480 1479 1478 1477 1476 1475 1474 1472 1471 1469 1468 1466 1464 1463 1461 1459 1457 1455 1453 1451 1449 1448 1447 1446 1445 1444 1444 1443 1443 1442 1442 1442
1475 1475 1476 1477 1478 1478 1479 1479 1478 1478 1478 1477 1476 1475 1474 1473 1472 1470 1469 1467 1466 1464 1463 1461 1459 1457 1456 1454 1452 1450 1448 1446 1444 1442 1442 1441 1440 1439 1438 1437 1437 1436 1436 1436
1471 1472 1473 1474 1474 1474 1474 1474 1474 1474 1473 1473 1472 1471 1469 1468 1467 1465 1464 1462 1460 1458 1457 1455 1454 1452 1450 1448 1446 1444 1442 1440 1438 1437 1436 1435 1433 1432 1432 1431 1430 1430 1430 1430
1466 1468 1469 1469 1470 1470 1470 1470 1470 1469 1469 1468 1467 1466 1464 1463 1462 1460 1458 1456 1454 1452 1450 1449 1447 1446 1444 1442 1441 1438 1437 1435 1433 1431 1430 1428 1427 1427 1426 1425 1424 1424 1424 1424
1464 1464 1465 1465 1465 1466 1466 1465 1465 1464 1464 1463 1462 1461 1459 1458 1457 1455 1453 1451 1448 1447 1445 1443 1441 1439 1437 1436 1434 1432 1430 1428 1427 1425 1424 1422 1421 1420 1419 1418 1418 1417 1417 1417
1461 1461 1461 1461 1461 1461 1461 1461 1460 1459 1459 1458 1457 1456 1454 1453 1451 1449 1447 1444 1442 1441 1438 1436 1434 1432 1431 1429 1427 1425 1423 1422 1420 1418 1417 1415 1414 1413 1412 1412 1411 1411 1410 1410
1457 1457 1457 1457 1457 1456 1456 1456 1455 1454 1453 1452 1451 1450 1449 1447 1445 1443 1440 1439 1436 1434 1432 1429 1428 1426 1424 1422 1420 1418 1416 1414 1413 1411 1410 1408 1407 1406 1405 1404 1404 1403 1403 1403
1454 1454 1453 1453 1453 1452 1452 1451 1450 1449 1448 1447 1446 1444 1443 1441 1439 1436 1434 1432 1430 1427 1425 1422 1420 1418 1416 1414 1412 1410 1408 1407 1405 1404 1402 1401 1400 1399 1398 1397 1396 1396 1395 1395
1450 1450 1449 1449 1448 1448 1447 1446 1445 1444 1442 1441 1439 1438 1436 1434 1431 1429 1427 1424 1422 1419 1417 1414 1412 1410 1408 1406 1404 1402 1400 1399 1397 1396 1395 1394 1392 1391 1390 1389 1388 1388 1388 1387
1445 1445 1444 1444 1443 1442 1441 1440 1439 1438 1436 1435 1433 1431 1429 1427 1425 1422 1420 1417 1414 1411 1409 1406 1404 1401 1400 1398 1396 1394 1392 1391 1389 1388 1387 1386 1384 1383 1382 1381 1381 1380 1380 1379
1440 1440 1439 1439 1438 1437 1436 1435 1433 1432 1430 1428 1426 1425 1423 1420 1417 1415 1412 1409 1407 1404 1401 1398 1396 1393 1391 1389 1387 1386 1384 1382 1381 1380 1379 1378 1377 1376 1375 1374 1373 1373 1372 1373
1435 1434 1433 1432 1432 1431 1430 1429 1427 1426 1424 1422 1420 1418 1416 1413 1410 1408 1405 1402 1399 1396 1393 1390 1388 1385 1383 1381 1379 1377 1375 1374 1373 1371 1370 1369 1369 1368 1367 1367 1366 1366 1366 1366